This demonstration page uses our WeatherBlox Daily Observations layout. Learn more.

Left ArrowRight Arrow

39.36473, -99.84206

Hourly Observations for March 20, 2020

Temp ( °F °C ) Dew Point ( °F °C ) Humidity (%) Winds ( mph kmh ) Pressure ( in mb ) Visibility ( mi km ) Precip ( " mm )
12:53 am 00:53 Cloudy 30 -1.1 23 -5 75 75 N 30 48 30.23 1024 10 16 0.00 0.00
1:24 am 01:24 Cloudy 29 -1.7 22 -5.6 75 75 N 37 59 30.36 1028 10 16 0.00 0.00
1:53 am 01:53 Cloudy 29 -1.7 21 -6.1 72 72 N 30 48 30.30 1026 10 16 0.00 0.00
2:53 am 02:53 Cloudy 28 -2.2 20 -6.7 72 72 NNW 28 44 30.35 1028 10 16 0.00 0.00
3:53 am 03:53 Cloudy 26 -3.3 18 -7.8 71 71 N 40 65 30.38 1029 10 16 0.00 0.00
4:53 am 04:53 Cloudy 26 -3.3 17 -8.3 69 69 N 18 30 30.43 1031 10 16 0.00 0.00
5:53 am 05:53 Cloudy 24 -4.4 16 -8.9 71 71 N 21 33 30.49 1032 10 16 0.00 0.00
6:53 am 06:53 Clear 21 -6.1 11 -11.7 65 65 N 21 33 30.51 1033 10 16 0.00 0.00
7:53 am 07:53 Sunny 20 -6.7 8 -13.3 60 60 N 15 24 30.57 1035 10 16 0.00 0.00
8:53 am 08:53 Sunny 21 -6.1 9 -12.8 59 59 N 20 31 30.62 1037 10 16 0.00 0.00
9:53 am 09:53 Sunny 24 -4.4 6 -14.4 46 46 N 17 28 30.66 1038 10 16 0.00 0.00
10:53 am 10:53 Sunny 26 -3.3 4 -15.6 38 38 N 17 28 30.68 1039 10 16 0.00 0.00
11:53 am 11:53 Sunny 30 -1.1 6 -14.4 36 36 NE 15 24 30.67 1039 10 16 0.00 0.00
12:53 pm 12:53 Sunny 33 0.6 7 -13.9 33 33 NNE 16 26 30.65 1038 10 16 0.00 0.00
1:53 pm 13:53 Sunny 35 1.7 7 -13.9 31 31 NE 10 17 30.63 1037 10 16 0.00 0.00
2:53 pm 14:53 Sunny 36 2.2 7 -13.9 30 30 N 9 15 30.60 1036 10 16 0.00 0.00
3:53 pm 15:53 Sunny 38 3.3 8 -13.3 29 29 VRB 3 6 30.57 1035 10 16 0.00 0.00
4:53 pm 16:53 Sunny 37 2.8 7 -13.9 28 28 VRB 3 6 30.54 1034 10 16 0.00 0.00
5:53 pm 17:53 Sunny 38 3.3 9 -12.8 30 30 NNE 10 17 30.53 1034 10 16 0.00 0.00
6:53 pm 18:53 Sunny 37 2.8 10 -12.2 33 33 ENE 10 17 30.53 1034 10 16 0.00 0.00
7:53 pm 19:53 Clear 31 -0.6 11 -11.7 43 43 E 8 13 30.55 1034 10 16 0.00 0.00
8:53 pm 20:53 Clear 27 -2.8 13 -10.6 55 55 ENE 8 13 30.58 1036 10 16 0.00 0.00
9:53 pm 21:53 Clear 24 -4.4 13 -10.6 62 62 ENE 8 13 30.59 1036 10 16 0.00 0.00
10:53 pm 22:53 Clear 23 -5 13 -10.6 65 65 E 6 9 30.59 1036 10 16 0.00 0.00
11:53 pm 23:53 Clear 20 -6.7 13 -10.6 74 74 E 5 7 30.59 1036 10 16 0.00 0.00

Powered by Vaisala Xweather